Minot AFB, ND

8:31 PM CST on November 16, 2019 (GMT -0600)
Minot Air Force Base

Weather History for KMIB - July, 2019

Change the Weather History Date:

Wednesday, July 31, 2019

  Actual Average Record
Temperature  
Mean Temperature 74 °F -  
Max Temperature 92 °F 79 °F 101 °F (2007)
Min Temperature 56 °F 55 °F 48 °F (1998)
Cooling Degree Days 8    
Growing Degree Days 24 (Base 50)    
Moisture  
Dew Point 61 °F    
Average Humidity 73    
Maximum Humidity 96    
Minimum Humidity 34    
Precipitation  
Precipitation 0.71 in - - ()
Sea Level Pressure  
Sea Level Pressure 29.97 in    
Wind  
Wind Speed 9 mph (SSE)    
Max Wind Speed 38 mph    
Max Gust Speed 47 mph    
Visibility 9 miles    
Events Rain , Thunderstorm    
Averages and records for this station are not official NWS values.
T = Trace of Precipitation, MM = Missing Value Source: NWS Daily Summary

Daily Weather History Graph

Daily Weather History Graph

Search for Another Location

Airport or City:

Astronomy

Jul. 31, 2019 Rise Set
Actual Time 6:18 AM CDT 9:24 PM CDT
Civil Twilight 5:41 AM CDT 10:01 PM CDT
Nautical Twilight 4:53 AM CDT 10:48 PM CDT
Astronomical Twilight 3:53 AM CDT 11:48 PM CDT
Moon 5:29 AM CDT (7/31) 9:27 PM CDT (7/31)
Length of Visible Light 16h 19m
Length of Day
15h 05m
Waning Crescent, 0% of the Moon is Illuminated
Jul 31
Waning Crescent
Jul 31
New
Aug 7
First Quarter
Aug 15
Full
Aug 23
Last Quarter

Hourly Weather History & Observations

Time (CDT) Temp. Heat Index Dew Point Humidity Pressure Visibility Wind Dir Wind Speed Gust Speed Precip Events Conditions
12:56 AM 62.6 °F - 55.6 °F 78% 29.97 in 10.0 mi SE 5.8 mph - N/A   Clear
1:56 AM 60.4 °F - 55.2 °F 83% 29.97 in 10.0 mi ESE 6.9 mph - N/A   Partly Cloudy
2:56 AM 58.3 °F - 55.0 °F 89% 29.96 in 10.0 mi SE 6.9 mph - N/A   Clear
3:56 AM 57.6 °F - 54.9 °F 91% 29.95 in 10.0 mi SSE 4.6 mph - N/A   Clear
4:56 AM 56.5 °F - 54.5 °F 93% 29.95 in 10.0 mi SSE 4.6 mph - N/A   Clear
5:56 AM 56.3 °F - 54.9 °F 95% 29.96 in 10.0 mi SSE 8.1 mph - N/A   Clear
6:56 AM 56.5 °F - 55.4 °F 96% 29.95 in 10.0 mi SE 6.9 mph - N/A   Clear
7:56 AM 61.5 °F - 59.5 °F 93% 29.95 in 10.0 mi SSE 6.9 mph - N/A   Clear
8:26 AM 62.6 °F - 60.8 °F 94% 29.95 in 10.0 mi SSE 5.8 mph - N/A   Mostly Cloudy
8:56 AM 66.2 °F - 62.2 °F 87% 29.96 in 10.0 mi South 6.9 mph - N/A   Overcast
9:41 AM 68.0 °F - 62.6 °F 83% 29.97 in 10.0 mi South 9.2 mph - N/A   Overcast
9:56 AM 67.6 °F - 62.6 °F 84% 29.97 in 10.0 mi SSW 11.5 mph - N/A   Overcast
10:56 AM 71.2 °F - 64.0 °F 78% 29.98 in 10.0 mi South 9.2 mph - N/A   Overcast
11:01 AM 71.6 °F - 64.4 °F 78% 29.98 in 10.0 mi SSW 9.2 mph - N/A   Overcast
11:26 AM 73.4 °F - 64.4 °F 73% 29.98 in 10.0 mi SSW 9.2 mph - N/A   Scattered Clouds
11:56 AM 76.1 °F - 65.1 °F 69% 29.96 in 10.0 mi South 11.5 mph - N/A   Clear
12:56 PM 80.2 °F 82.3 °F 66.0 °F 62% 29.95 in 10.0 mi SSW 9.2 mph - N/A   Clear
1:56 PM 84.9 °F 87.4 °F 66.4 °F 54% 29.94 in 10.0 mi South 12.7 mph 18.4 mph N/A   Clear
2:56 PM 88.5 °F 90.1 °F 64.9 °F 45% 29.93 in 10.0 mi SSW 11.5 mph - N/A   Clear
3:56 PM 90.0 °F 90.6 °F 62.4 °F 40% 29.92 in 10.0 mi South 4.6 mph - N/A   Clear
4:56 PM 90.7 °F 91.3 °F 62.2 °F 39% 29.93 in 10.0 mi WSW 4.6 mph - N/A   Clear
5:56 PM 91.8 °F 91.2 °F 59.4 °F 34% 29.92 in 10.0 mi West 4.6 mph - N/A   Clear
6:56 PM 90.7 °F 90.4 °F 60.1 °F 36% 29.93 in 10.0 mi Calm Calm - N/A   Clear
7:56 PM 88.9 °F 89.7 °F 62.8 °F 42% 29.91 in 10.0 mi Calm Calm - N/A   Clear
8:27 PM 84.2 °F 85.6 °F 64.4 °F 51% 29.90 in 10.0 mi South 11.5 mph - N/A Thunderstorm Thunderstorm
8:56 PM 78.8 °F - 64.2 °F 61% 29.94 in 10.0 mi NNE 13.8 mph 23.0 mph N/A Thunderstorm Thunderstorm
9:01 PM 77.0 °F - 66.2 °F 69% 29.94 in 6.0 mi NNE 27.6 mph 47.2 mph N/A Rain , Thunderstorm Light Thunderstorms and Rain
9:02 PM 75.2 °F - 66.2 °F 73% 29.95 in 6.0 mi NE 38.0 mph 47.2 mph N/A Rain , Thunderstorm Light Thunderstorms and Rain
9:07 PM 73.4 °F - 66.2 °F 78% 29.97 in 0.9 mi NE 25.3 mph 47.2 mph N/A Rain , Thunderstorm Heavy Thunderstorms and Rain
9:17 PM 69.8 °F - 62.6 °F 78% 29.98 in 1.9 mi North 25.3 mph 40.3 mph N/A Rain , Thunderstorm Heavy Thunderstorms and Rain
9:21 PM 69.8 °F - 62.6 °F 78% 29.98 in 2.8 mi NE 19.6 mph 40.3 mph N/A Rain , Thunderstorm Heavy Thunderstorms and Rain
9:26 PM 68.0 °F - 62.6 °F 83% 30.01 in 2.5 mi NE 15.0 mph 34.5 mph N/A Rain , Thunderstorm Heavy Thunderstorms and Rain
9:31 PM 66.2 °F - 60.8 °F 83% 30.03 in 3.0 mi ENE 16.1 mph - N/A Rain , Thunderstorm Heavy Thunderstorms and Rain
9:38 PM 68.0 °F - 60.8 °F 78% 30.02 in 4.0 mi East 13.8 mph - N/A Rain , Thunderstorm Heavy Thunderstorms and Rain
9:53 PM 68.0 °F - 60.8 °F 78% 30.01 in 10.0 mi ESE 8.1 mph - N/A Rain , Thunderstorm Light Thunderstorms and Rain
9:56 PM 68.4 °F - 60.8 °F 77% 30.01 in 10.0 mi SE 6.9 mph - 0.70 in Rain , Thunderstorm Light Thunderstorms and Rain
10:01 PM 68.0 °F - 60.8 °F 78% 30.01 in 10.0 mi SE 8.1 mph 17.3 mph N/A Rain , Thunderstorm Light Thunderstorms and Rain
10:03 PM 68.0 °F - 60.8 °F 78% 30.02 in 10.0 mi Calm Calm - N/A Rain , Thunderstorm Light Rain
10:08 PM 68.0 °F - 59.0 °F 73% 30.03 in 10.0 mi Calm Calm - N/A Rain , Thunderstorm Light Rain
10:11 PM 68.0 °F - 60.8 °F 78% 30.02 in 10.0 mi Calm Calm - N/A Thunderstorm Scattered Clouds
10:56 PM 68.5 °F - 59.5 °F 73% 29.99 in 10.0 mi South 6.9 mph - 0.01 in   Scattered Clouds
11:56 PM 66.6 °F - 60.3 °F 80% 29.98 in 10.0 mi North 3.5 mph - N/A   Clear